[[{"header":{"parameterUnit":"m.s-1","parameterCategory":1,"la1":30.2991,"la2":30.254,"lo1":-89.0895,"lo2":-89.0444,"dy":0.0017,"dx":0.0017,"nx":28,"ny":28,"refTime":"2024-07-19T09:00:00:Z","depth":0,"parameterNumber":2,"parameterNumberName":"U-component_of_WINDS"},"data":[0,0,0,0,0,0,0,0,0,0,0,0,0,0,0,0,0,0,0,0,0,0,0,0,0,0,0,0,0,0,0,0,0,0,0,0,0,0,0,0,0,0,0,0,0,0,0,0,0,0,0,0,0,0,0,0,0,0,2.4706,2.4707,0,2.4821,2.4823,2.4824,2.4821,2.4819,2.4817,2.4816,2.4938,2.4942,2.4947,0,0,0,0,0,0,0,0,0,0,0,0,0,2.4482,2.4486,2.4706,2.4707,2.4708,2.4821,2.4823,2.4824,2.4821,2.4819,2.4817,2.4815,2.4936,2.4942,2.4948,0,0,0,0,0,0,0,0,0,0,0,0,0,2.4587,2.4488,2.4705,2.472,2.4723,2.4821,2.4823,2.4825,2.4821,2.4819,2.4816,2.4814,2.4934,2.4941,2.4948,2.504,0,0,2.497,2.4973,0,0,0,0,0,0,0,0,2.4581,2.4595,2.4717,2.4719,2.4722,2.4804,2.4789,2.4897,2.4822,2.4784,2.4816,2.4813,2.4896,2.4906,2.4933,2.5046,2.5051,2.4971,2.4975,2.4978,2.498,0,0,0,0,0,0,0,2.4574,2.459,2.4751,2.4718,2.4722,2.4721,2.4734,2.4809,2.4852,2.4787,2.4787,2.4801,2.4897,2.4926,2.4936,2.5053,2.4971,2.4977,2.4981,2.4984,2.5244,2.5247,0,0,0,0,0,0,2.4563,2.4584,2.4748,2.4755,2.4644,2.4727,2.4741,2.478,2.4851,2.4859,2.4803,2.48,2.4915,2.4927,2.494,2.5049,2.4978,2.4985,2.4989,2.5241,2.5245,2.5247,0,0,0,0,0,0,2.4558,2.4578,2.4743,2.467,2.469,2.4734,2.4778,2.4784,2.4813,2.4863,2.4871,2.4825,2.4914,2.493,2.5014,2.5053,2.4988,2.4994,2.5238,2.5242,2.5246,2.527,0,0,0,0,0,0,2.4552,2.4576,2.4611,2.467,2.4694,2.4815,2.478,2.4788,2.4825,2.4823,2.4885,2.4894,2.4913,2.5004,2.5021,2.5062,2.5,2.5235,2.524,2.5245,2.5266,2.5274,2.5282,0,0,0,0,0,2.4544,2.4615,2.4613,2.4633,2.4739,2.4818,2.4831,2.4851,2.4828,2.4864,2.4895,2.4892,2.5047,2.5012,2.5032,2.5076,2.5233,2.5239,2.5244,2.5262,2.5273,2.5281,0,0,0,0,0,0,2.4561,2.4623,2.4622,2.4714,2.476,2.4817,2.4862,2.4862,2.4917,2.4913,2.4936,2.495,2.5034,2.5064,2.5025,2.5167,2.5137,2.5147,2.5144,2.5154,2.5161,2.5151,2.5006,0,0,0,0,0,2.4576,2.4633,2.4685,2.4761,2.4784,2.4819,2.4854,2.4865,2.4915,2.4935,2.4973,2.5021,2.508,2.5119,2.5177,2.5271,2.5283,2.531,2.5318,2.5324,2.5332,2.5381,2.5392,2.5267,2.5267,2.5267,0,0,2.4607,2.4647,2.4683,2.4766,2.4803,2.4861,2.4836,2.49,2.4944,2.4945,2.5025,2.5055,2.5111,2.5199,2.524,2.5227,2.537,2.5332,2.5337,2.5341,2.5388,2.54,2.541,2.5271,2.527,2.527,0,0,2.4692,2.473,2.4795,2.4832,2.4888,2.491,2.4926,2.4983,2.5001,2.5082,2.5083,2.5136,2.5239,2.5277,2.531,2.5407,2.5405,2.5426,2.5466,2.5513,2.5523,2.5531,2.5563,2.5574,2.5434,2.5434,2.5434,0,2.4723,2.4811,2.483,2.4893,2.4928,2.493,2.4996,2.5032,2.5104,2.5129,2.5112,2.5238,2.5277,2.5372,2.5395,2.5424,2.5441,2.5418,2.552,2.5529,2.5537,2.5567,2.5579,2.5436,2.5436,2.5436,2.5435,0,2.4844,2.4905,2.4952,2.5019,2.506,2.5125,2.5153,2.5193,2.52,2.5224,2.5305,2.535,2.5415,2.544,2.5449,2.5536,2.5525,2.5514,2.5484,2.5551,2.5579,2.5591,2.5439,2.5438,2.5437,2.5437,0,0,2.4944,2.5018,2.5035,2.5064,2.5124,2.5172,2.5236,2.5298,2.533,2.538,2.5433,2.5519,2.5507,2.5545,2.5558,2.56,2.5669,2.5583,2.5585,2.5595,2.5765,2.5771,2.5784,2.5669,2.5671,2.5673,2.5759,0,2.5033,2.5144,2.5162,2.5261,2.5315,2.5317,2.5373,2.5416,2.544,2.549,2.5517,2.5576,2.5558,2.558,2.5622,2.5652,2.5703,2.5647,2.5717,2.572,2.57,2.5799,2.5807,2.5885,2.5771,2.5773,2.5774,0,2.5151,2.5201,2.5304,2.5353,2.5377,2.5427,2.5483,2.5532,2.558,2.5594,2.5635,2.5642,2.5708,2.5677,2.5767,2.5727,2.5758,2.5777,2.578,2.5786,2.5749,2.5805,2.5911,2.5922,2.5793,2.5791,2.579,0,2.5209,2.5302,2.5374,2.54,2.5461,2.5495,2.5522,2.5568,2.5603,2.5653,2.5676,2.5734,2.5765,2.581,2.5832,2.5808,2.592,2.5891,2.5932,2.5932,2.5954,2.5952,2.6064,2.5979,2.5978,2.5978,2.5978,0,2.5304,2.5366,2.54,2.5445,2.5514,2.5534,2.5602,2.5629,2.5669,2.5718,2.5725,2.5771,2.58,2.585,2.5869,2.5939,2.5954,2.5966,2.597,2.5964,2.5962,2.5983,2.5977,2.5981,2.5981,2.598,2.5979,0,2.538,2.5405,2.5484,2.5534,2.5548,2.5597,2.564,2.5683,2.5706,2.5768,2.5784,2.582,2.588,2.5907,2.5982,2.5994,2.6072,2.6074,2.6055,2.6056,2.6094,2.6089,2.6222,2.6239,2.6144,2.6145,2.6146,0,2.5437,2.5484,2.5539,2.5571,2.5599,2.5652,2.5686,2.5708,2.5744,2.5801,2.5837,2.5896,2.5944,2.6039,2.6072,2.6129,2.613,2.6172,2.6138,2.613,2.6127,2.6122,2.6126,2.6178,2.6179,2.6179,2.618,0,2.5536,2.5545,2.5595,2.5648,2.5689,2.5732,2.5775,2.5801,2.583,2.587,2.5929,2.5966,2.604,2.6098,2.6156,2.6185,2.6187,2.6191,2.6202,2.6196,2.6181,2.6186,2.6069,2.6187,2.6186,2.6186,2.6185,2.6185,2.5602,2.5643,2.5686,2.574,2.5774,2.5813,2.5854,2.5881,2.5931,2.5991,2.6002,2.6064,2.611,2.6187,2.6218,2.6267,2.6257,2.6275,2.628,2.6283,2.6283,2.6175,2.6278,2.6278,2.6278,2.6278,2.6278,0,2.5698,2.5725,2.5775,2.5832,2.5875,2.5872,2.5918,2.5953,2.6008,2.6049,2.6095,2.6163,2.6218,2.6256,2.6312,2.6344,2.6346,2.6358,2.6354,2.636,2.6291,2.6273,2.6355,2.6355,2.6355,2.6355,2.6355,2.6355,2.5752,2.582,2.5834,2.5918,2.5945,2.6005,2.6031,2.6067,2.6099,2.6173,2.6219,2.6242,2.6282,2.634,2.6391,2.64,2.642,2.6431,2.644,2.6374,2.6366,2.6358,2.6341,2.6436,2.6436,2.6505,2.6506,2.6506]},{"header":{"parameterUnit":"m.s-1","parameterCategory":1,"la1":30.2991,"la2":30.254,"lo1":-89.0895,"lo2":-89.0444,"dy":0.0017,"dx":0.0017,"nx":28,"ny":28,"refTime":"2024-07-19T09:00:00:Z","depth":0,"parameterNumber":3,"parameterNumberName":"V-component_of_WINDS"},"data":[0,0,0,0,0,0,0,0,0,0,0,0,0,0,0,0,0,0,0,0,0,0,0,0,0,0,0,0,0,0,0,0,0,0,0,0,0,0,0,0,0,0,0,0,0,0,0,0,0,0,0,0,0,0,0,0,0,0,3.4828,3.4828,0,3.4864,3.4864,3.4865,3.4837,3.4836,3.4834,3.4833,3.4866,3.4868,3.487,0,0,0,0,0,0,0,0,0,0,0,0,0,3.473,3.4732,3.4828,3.4828,3.4829,3.4864,3.4864,3.4865,3.4837,3.4836,3.4834,3.4833,3.4866,3.4868,3.487,0,0,0,0,0,0,0,0,0,0,0,0,0,3.477,3.4732,3.4828,3.4819,3.4819,3.4864,3.4864,3.4865,3.4837,3.4836,3.4834,3.4832,3.4865,3.4868,3.4871,3.4925,0,0,3.488,3.4881,0,0,0,0,0,0,0,0,3.4767,3.4773,3.482,3.482,3.4819,3.4844,3.4842,3.4885,3.4838,3.483,3.4833,3.4831,3.486,3.4863,3.4874,3.4926,3.4927,3.488,3.4882,3.4883,3.4884,0,0,0,0,0,0,0,3.4765,3.4772,3.4842,3.4821,3.482,3.4812,3.4816,3.485,3.4854,3.4831,3.4829,3.4834,3.4859,3.4871,3.4874,3.4928,3.488,3.4882,3.4884,3.4885,3.5024,3.5026,0,0,0,0,0,0,3.4763,3.4769,3.4841,3.4843,3.4789,3.4815,3.4819,3.4838,3.4854,3.4855,3.4835,3.4832,3.4867,3.4871,3.4875,3.4938,3.4883,3.4886,3.4887,3.5022,3.5024,3.5026,0,0,0,0,0,0,3.4761,3.477,3.4839,3.4806,3.4814,3.4819,3.484,3.484,3.4851,3.4857,3.4858,3.4846,3.4866,3.4871,3.4912,3.4938,3.4887,3.489,3.502,3.5023,3.5025,3.5064,0,0,0,0,0,0,3.4759,3.477,3.4791,3.4806,3.4816,3.4877,3.4842,3.4842,3.4857,3.4853,3.4868,3.4869,3.4865,3.4908,3.4915,3.4942,3.4892,3.5017,3.5021,3.5024,3.506,3.5068,3.5074,0,0,0,0,0,3.4755,3.48,3.4792,3.4801,3.4843,3.4879,3.4884,3.4879,3.4859,3.488,3.4884,3.4868,3.4935,3.4912,3.492,3.4948,3.5016,3.502,3.5024,3.5057,3.5066,3.5074,0,0,0,0,0,0,3.4787,3.4802,3.4794,3.4845,3.4861,3.4874,3.49,3.4889,3.491,3.4906,3.4898,3.4902,3.4944,3.4951,3.4925,3.5,3.4972,3.4978,3.4994,3.5003,3.501,3.5006,3.4895,0,0,0,0,0,3.48,3.4829,3.484,3.4884,3.4893,3.4895,3.491,3.4906,3.4921,3.4927,3.4934,3.4949,3.4972,3.4988,3.5011,3.5062,3.5063,3.5084,3.5091,3.5097,3.5101,3.5126,3.5135,3.504,3.504,3.504,0,0,3.4827,3.4839,3.4857,3.4891,3.4902,3.493,3.4901,3.4932,3.4952,3.4932,3.497,3.4976,3.4992,3.5037,3.5058,3.5043,3.5128,3.5102,3.5107,3.5108,3.5132,3.5141,3.5149,3.5043,3.5043,3.5042,0,0,3.4889,3.4903,3.494,3.4952,3.4971,3.4972,3.4981,3.4996,3.4999,3.5038,3.5023,3.5046,3.5088,3.5099,3.511,3.5177,3.5162,3.5185,3.522,3.5244,3.5252,3.5258,3.528,3.5288,3.519,3.519,3.519,0,3.492,3.4963,3.496,3.4992,3.5007,3.4991,3.5027,3.5039,3.5063,3.5072,3.5057,3.5108,3.5118,3.5165,3.5181,3.5191,3.5199,3.5182,3.5251,3.5258,3.5264,3.5284,3.5292,3.5192,3.5192,3.5191,3.5191,0,3.4999,3.5029,3.5056,3.5081,3.5099,3.5133,3.5133,3.5151,3.5145,3.5148,3.5187,3.5198,3.5221,3.5232,3.5227,3.5278,3.5268,3.5253,3.5223,3.5275,3.5294,3.5302,3.5195,3.5195,3.5194,3.5193,0,0,3.5081,3.5104,3.5114,3.5124,3.5143,3.5165,3.5198,3.5222,3.5237,3.5254,3.528,3.5316,3.5301,3.5314,3.5309,3.5331,3.538,3.5311,3.5312,3.5322,3.5435,3.5445,3.5454,3.5371,3.5373,3.5374,3.5432,0,3.5143,3.5201,3.5199,3.5252,3.5279,3.5264,3.5292,3.5306,3.5309,3.5331,3.5334,3.5358,3.5338,3.5345,3.5366,3.5369,3.5402,3.5366,3.5393,3.5394,3.5387,3.5464,3.5476,3.553,3.544,3.5441,3.5442,0,3.5222,3.5243,3.53,3.5314,3.5325,3.535,3.5371,3.5393,3.5408,3.5408,3.5423,3.5414,3.5445,3.5418,3.5459,3.5434,3.5446,3.5449,3.5451,3.5451,3.5419,3.5464,3.5547,3.5555,3.5454,3.5453,3.5452,0,3.5274,3.5316,3.5355,3.5364,3.5382,3.54,3.5408,3.5421,3.5435,3.5454,3.5462,3.5484,3.5495,3.5511,3.5508,3.5489,3.555,3.5522,3.5549,3.5549,3.5561,3.556,3.5644,3.5572,3.5572,3.5572,3.5572,0,3.5341,3.5376,3.5378,3.5401,3.5439,3.5436,3.5472,3.5478,3.549,3.5513,3.5502,3.5523,3.5519,3.554,3.5538,3.5571,3.5577,3.5577,3.5575,3.5576,3.5576,3.5582,3.5577,3.5574,3.5574,3.5573,3.5573,0,3.5404,3.5407,3.5448,3.5462,3.5466,3.5493,3.5503,3.5525,3.5528,3.5557,3.5563,3.5567,3.5591,3.559,3.5617,3.5616,3.5656,3.5652,3.5651,3.5649,3.5675,3.5672,3.5765,3.5776,3.5699,3.57,3.57,0,3.5446,3.5472,3.5489,3.5504,3.5513,3.5538,3.5553,3.555,3.5566,3.5584,3.5603,3.5626,3.5645,3.5684,3.5687,3.5708,3.5702,3.5733,3.5705,3.5705,3.5699,3.5697,3.5698,3.5738,3.5739,3.5739,3.574,0,3.5519,3.5519,3.5541,3.5564,3.5582,3.5599,3.5615,3.5628,3.5627,3.5645,3.567,3.5684,3.5712,3.5735,3.5754,3.5761,3.5749,3.5749,3.5756,3.5756,3.5754,3.5753,3.5664,3.5747,3.5746,3.5745,3.5745,3.5745,3.5571,3.5592,3.5607,3.5632,3.5644,3.5659,3.568,3.5685,3.5706,3.5729,3.5727,3.5754,3.5767,3.5792,3.5801,3.5821,3.5809,3.582,3.5822,3.5824,3.5826,3.5753,3.5825,3.5824,3.5824,3.5824,3.5824,0,3.5641,3.565,3.5673,3.5696,3.5715,3.5705,3.5722,3.5738,3.5762,3.5776,3.5794,3.5822,3.5844,3.585,3.5871,3.5886,3.5881,3.5891,3.5888,3.5889,3.5836,3.5827,3.5894,3.5894,3.5894,3.5894,3.5894,3.5894,3.5679,3.5715,3.5717,3.5758,3.5767,3.5794,3.5804,3.5818,3.5828,3.586,3.5879,3.5883,3.5893,3.5914,3.5933,3.5934,3.5941,3.5953,3.5951,3.5901,3.5893,3.5887,3.5878,3.5955,3.5955,3.6003,3.6003,3.6003]}]]